TimeCDT,TemperatureF,Dew PointF,Humidity,Sea Level PressureIn,VisibilityMPH,Wind Direction,Wind SpeedMPH,Gust SpeedMPH,PrecipitationIn,Events,Conditions,WindDirDegrees,DateUTC
12:15 AM,48.2,35.6,62,30.15,10.0,NE,6.9,-,N/A,,Scattered Clouds,50,2013-05-10 05:15:00
12:55 AM,48.2,33.8,58,30.16,10.0,ENE,9.2,-,N/A,,Clear,60,2013-05-10 05:55:00
1:15 AM,46.4,33.8,62,30.15,10.0,NE,9.2,-,N/A,,Clear,50,2013-05-10 06:15:00
1:35 AM,46.4,33.8,62,30.15,10.0,ENE,9.2,-,N/A,,Clear,60,2013-05-10 06:35:00
1:55 AM,46.4,32.0,57,30.16,10.0,ENE,9.2,-,N/A,,Clear,60,2013-05-10 06:55:00
2:16 AM,44.6,33.8,66,30.15,10.0,NE,6.9,-,N/A,,Clear,50,2013-05-10 07:16:00
2:35 AM,44.6,33.8,66,30.15,10.0,NE,9.2,-,N/A,,Clear,50,2013-05-10 07:35:00
2:55 AM,44.6,33.8,66,30.15,10.0,NE,8.1,-,N/A,,Clear,50,2013-05-10 07:55:00
3:16 AM,44.6,30.2,57,30.14,10.0,ENE,9.2,-,N/A,,Clear,60,2013-05-10 08:16:00
3:35 AM,42.8,28.4,57,30.14,10.0,ENE,10.4,-,N/A,,Clear,60,2013-05-10 08:35:00
3:55 AM,42.8,28.4,57,30.14,10.0,NE,6.9,-,N/A,,Clear,50,2013-05-10 08:55:00
4:16 AM,42.8,26.6,53,30.14,10.0,ENE,9.2,16.1,N/A,,Clear,60,2013-05-10 09:16:00
4:35 AM,42.8,26.6,53,30.14,10.0,ENE,11.5,17.3,N/A,,Clear,60,2013-05-10 09:35:00
4:55 AM,41.0,26.6,57,30.15,10.0,NE,10.4,-,N/A,,Clear,50,2013-05-10 09:55:00
5:14 AM,41.0,26.6,57,30.14,10.0,ENE,11.5,17.3,N/A,,Clear,60,2013-05-10 10:14:00
5:35 AM,41.0,26.6,57,30.15,10.0,ENE,11.5,17.3,N/A,,Clear,60,2013-05-10 10:35:00
5:55 AM,41.0,26.6,57,30.14,10.0,ENE,13.8,18.4,N/A,,Clear,60,2013-05-10 10:55:00
6:15 AM,41.0,26.6,57,30.14,10.0,ENE,12.7,-,N/A,,Clear,60,2013-05-10 11:15:00
6:35 AM,41.0,26.6,57,30.15,10.0,ENE,12.7,18.4,N/A,,Clear,60,2013-05-10 11:35:00
7:15 AM,42.8,26.6,53,30.16,10.0,ENE,13.8,18.4,N/A,,Clear,70,2013-05-10 12:15:00
7:35 AM,42.8,26.6,53,30.16,10.0,East,11.5,18.4,N/A,,Clear,80,2013-05-10 12:35:00
8:15 AM,44.6,26.6,49,30.16,10.0,East,9.2,-,N/A,,Clear,80,2013-05-10 13:15:00
8:35 AM,44.6,26.6,49,30.15,10.0,East,13.8,-,N/A,,Clear,80,2013-05-10 13:35:00
8:55 AM,46.4,26.6,46,30.15,10.0,East,9.2,-,N/A,,Clear,80,2013-05-10 13:55:00
9:15 AM,46.4,28.4,50,30.15,10.0,ENE,9.2,-,N/A,,Clear,60,2013-05-10 14:15:00
9:36 AM,48.2,28.4,46,30.15,10.0,ENE,10.4,-,N/A,,Clear,70,2013-05-10 14:36:00
9:55 AM,48.2,28.4,46,30.15,10.0,ENE,6.9,-,N/A,,Clear,60,2013-05-10 14:55:00
10:15 AM,50.0,26.6,40,30.14,10.0,ENE,5.8,-,N/A,,Clear,70,2013-05-10 15:15:00
10:36 AM,51.8,24.8,35,30.14,10.0,East,4.6,-,N/A,,Clear,80,2013-05-10 15:36:00
10:55 AM,51.8,24.8,35,30.13,10.0,Calm,Calm,-,N/A,,Clear,0,2013-05-10 15:55:00
11:15 AM,53.6,28.4,38,30.12,10.0,Calm,Calm,-,N/A,,Clear,0,2013-05-10 16:15:00
11:36 AM,55.4,26.6,33,30.12,10.0,North,3.5,-,N/A,,Clear,360,2013-05-10 16:36:00
12:15 PM,57.2,26.6,31,30.11,10.0,Calm,Calm,-,N/A,,Clear,0,2013-05-10 17:15:00
12:35 PM,57.2,23.0,27,30.11,10.0,Calm,Calm,-,N/A,,Clear,0,2013-05-10 17:35:00
12:55 PM,57.2,23.0,27,30.10,10.0,Calm,Calm,-,N/A,,Clear,0,2013-05-10 17:55:00
1:15 PM,59.0,19.4,22,30.10,10.0,Calm,Calm,-,N/A,,Clear,0,2013-05-10 18:15:00
1:35 PM,60.8,15.8,17,30.09,10.0,Calm,Calm,-,N/A,,Clear,0,2013-05-10 18:35:00
1:55 PM,62.6,19.4,19,30.07,10.0,Calm,Calm,-,N/A,,Clear,0,2013-05-10 18:55:00
2:15 PM,62.6,15.8,16,30.07,10.0,Calm,Calm,-,N/A,,Clear,0,2013-05-10 19:15:00
2:35 PM,62.6,15.8,16,30.06,10.0,WNW,5.8,-,N/A,,Clear,300,2013-05-10 19:35:00
2:55 PM,64.4,24.8,22,30.05,10.0,WSW,4.6,-,N/A,,Clear,250,2013-05-10 19:55:00
3:15 PM,64.4,21.2,19,30.04,10.0,SSW,4.6,-,N/A,,Clear,200,2013-05-10 20:15:00
3:35 PM,66.2,21.2,18,30.03,10.0,West,3.5,-,N/A,,Clear,260,2013-05-10 20:35:00
3:55 PM,66.2,19.4,17,30.02,10.0,West,10.4,-,N/A,,Clear,260,2013-05-10 20:55:00
4:15 PM,66.2,24.8,21,30.01,10.0,WSW,6.9,-,N/A,,Clear,250,2013-05-10 21:15:00
4:35 PM,66.2,23.0,19,30.00,10.0,WSW,9.2,-,N/A,,Clear,250,2013-05-10 21:35:00
4:55 PM,66.2,21.2,18,29.99,10.0,West,6.9,16.1,N/A,,Clear,260,2013-05-10 21:55:00
5:35 PM,66.2,19.4,17,29.98,10.0,West,9.2,17.3,N/A,,Clear,260,2013-05-10 22:35:00
5:55 PM,66.2,21.2,18,29.98,10.0,WSW,12.7,18.4,N/A,,Clear,240,2013-05-10 22:55:00
6:15 PM,66.2,24.8,21,29.97,10.0,West,8.1,-,N/A,,Clear,270,2013-05-10 23:15:00
6:35 PM,68.0,24.8,20,29.96,10.0,WSW,12.7,-,N/A,,Clear,250,2013-05-10 23:35:00
6:55 PM,68.0,23.0,18,29.94,10.0,SW,5.8,-,N/A,,Clear,220,2013-05-10 23:55:00
7:15 PM,66.2,26.6,23,29.93,10.0,SW,10.4,-,N/A,,Clear,220,2013-05-11 00:15:00
7:35 PM,64.4,30.2,28,29.92,10.0,SW,4.6,-,N/A,,Clear,220,2013-05-11 00:35:00
7:55 PM,66.2,28.4,24,29.92,10.0,Calm,Calm,-,N/A,,Clear,0,2013-05-11 00:55:00
8:15 PM,66.2,30.2,26,29.91,10.0,Calm,Calm,-,N/A,,Clear,0,2013-05-11 01:15:00
8:35 PM,64.4,33.8,32,29.90,10.0,Calm,Calm,-,N/A,,Scattered Clouds,0,2013-05-11 01:35:00
8:55 PM,62.6,35.6,37,29.91,10.0,Calm,Calm,-,N/A,,Mostly Cloudy,0,2013-05-11 01:55:00
9:15 PM,64.4,35.6,34,29.91,10.0,WSW,3.5,-,N/A,Rain,Light Rain,240,2013-05-11 02:15:00
9:35 PM,62.6,46.4,55,29.92,7.0,West,11.5,26.5,N/A,Rain,Light Rain,260,2013-05-11 02:35:00
9:55 PM,60.8,46.4,59,29.93,10.0,West,18.4,23.0,N/A,,Mostly Cloudy,270,2013-05-11 02:55:00
10:15 PM,59.0,41.0,51,29.94,10.0,NNW,27.6,38.0,N/A,,Scattered Clouds,330,2013-05-11 03:15:00
10:35 PM,57.2,39.2,51,29.97,10.0,NNW,21.9,27.6,N/A,,Scattered Clouds,330,2013-05-11 03:35:00
10:55 PM,55.4,39.2,54,29.98,10.0,NNW,20.7,27.6,N/A,,Scattered Clouds,330,2013-05-11 03:55:00
11:15 PM,55.4,37.4,51,29.99,10.0,NNW,19.6,31.1,N/A,,Scattered Clouds,330,2013-05-11 04:15:00
11:35 PM,53.6,37.4,54,30.00,10.0,NNW,24.2,29.9,N/A,,Clear,330,2013-05-11 04:35:00
11:55 PM,53.6,37.4,54,30.01,10.0,NNW,23.0,28.8,N/A,,Clear,330,2013-05-11 04:55:00